カタログに戻る

FENGYUN 1C DEB

運用中SSO
NORAD 29866·DEBRIS·🇨🇳 China

打ち上げ May 10, 1999 から Taiyuan Satellite Launch Center

Loading…

次のパス (今後24時間)

TLE

最新Source: Space-Track

元期: Sep 14, 2026, 11:04 UTC

1 29866U 99025FL  26257.46137659  .00001620  00000-0  23538-3 0  9992
2 29866  98.0625 242.5184 0193292  64.6205  84.6855 14.65381078 43633

AllMySatでFENGYUN 1C DEBをリアルタイム追跡

Download on the App Store